Time,TemperatureF,DewpointF,PressureIn,WindDirection,WindDirectionDegrees,WindSpeedMPH,WindSpeedGustMPH,Humidity,HourlyPrecipIn,Conditions,Clouds,dailyrainin,SoftwareType,DateUTC
2013-03-28 00:09:00,57.9,35.0,29.91,SE,135,0.0,4.0,43,0.00,,,0.00,weatherlink.com 1.10,2013-03-28 05:09:00,
2013-03-28 00:24:00,58.6,35.0,29.91,SE,135,1.0,4.0,42,0.00,,,0.00,weatherlink.com 1.10,2013-03-28 05:24:00,
2013-03-28 00:39:00,58.5,35.0,29.90,SE,135,0.0,7.0,42,0.00,,,0.00,weatherlink.com 1.10,2013-03-28 05:39:00,
2013-03-28 00:54:00,59.0,35.0,29.90,SE,135,0.0,7.0,41,0.00,,,0.00,weatherlink.com 1.10,2013-03-28 05:54:00,
2013-03-28 01:09:00,57.1,35.0,29.90,SE,135,0.0,1.0,44,0.00,,,0.00,weatherlink.com 1.10,2013-03-28 06:09:00,
2013-03-28 01:24:00,57.2,35.0,29.90,SE,135,1.0,3.0,43,0.00,,,0.00,weatherlink.com 1.10,2013-03-28 06:24:00,
2013-03-28 01:39:00,56.9,34.0,29.90,SE,135,0.0,2.0,43,0.00,,,0.00,weatherlink.com 1.10,2013-03-28 06:39:00,
2013-03-28 01:54:00,57.0,34.0,29.90,SE,135,0.0,2.0,42,0.00,,,0.00,weatherlink.com 1.10,2013-03-28 06:54:00,
2013-03-28 02:09:00,57.1,34.0,29.90,SE,135,0.0,2.0,42,0.00,,,0.00,weatherlink.com 1.10,2013-03-28 07:09:00,
2013-03-28 02:24:00,57.2,35.0,29.90,SE,135,1.0,2.0,43,0.00,,,0.00,weatherlink.com 1.10,2013-03-28 07:24:00,
2013-03-28 02:39:00,57.2,34.0,29.90,SE,135,0.0,3.0,42,0.00,,,0.00,weatherlink.com 1.10,2013-03-28 07:39:00,
2013-03-28 02:54:00,57.8,34.0,29.89,SE,135,0.0,3.0,41,0.00,,,0.00,weatherlink.com 1.10,2013-03-28 07:54:00,
2013-03-28 03:09:00,57.4,34.0,29.89,SE,135,0.0,2.0,42,0.00,,,0.00,weatherlink.com 1.10,2013-03-28 08:09:00,
2013-03-28 03:24:00,57.8,35.0,29.89,SE,135,3.0,4.0,42,0.00,,,0.00,weatherlink.com 1.10,2013-03-28 08:24:00,
2013-03-28 03:39:00,58.0,35.0,29.89,SE,135,0.0,1.0,42,0.00,,,0.00,weatherlink.com 1.10,2013-03-28 08:39:00,
2013-03-28 03:54:00,56.6,35.0,29.88,SE,135,0.0,1.0,44,0.00,,,0.00,weatherlink.com 1.10,2013-03-28 08:54:00,
2013-03-28 04:09:00,57.8,35.0,29.88,SE,135,0.0,2.0,42,0.00,,,0.00,weatherlink.com 1.10,2013-03-28 09:09:00,
2013-03-28 04:24:00,57.4,34.0,29.88,SE,135,0.0,1.0,42,0.00,,,0.00,weatherlink.com 1.10,2013-03-28 09:24:00,
2013-03-28 04:39:00,57.1,34.0,29.88,SE,135,0.0,3.0,42,0.00,,,0.00,weatherlink.com 1.10,2013-03-28 09:39:00,
2013-03-28 04:54:00,57.4,34.0,29.88,SE,135,0.0,1.0,41,0.00,,,0.00,weatherlink.com 1.10,2013-03-28 09:54:00,
2013-03-28 05:09:00,57.6,34.0,29.88,SE,135,0.0,2.0,41,0.00,,,0.00,weatherlink.com 1.10,2013-03-28 10:09:00,
2013-03-28 05:24:00,58.7,34.0,29.87,SE,135,0.0,1.0,40,0.00,,,0.00,weatherlink.com 1.10,2013-03-28 10:24:00,
2013-03-28 05:39:00,58.0,34.0,29.87,SE,135,0.0,1.0,41,0.00,,,0.00,weatherlink.com 1.10,2013-03-28 10:39:00,
2013-03-28 05:54:00,58.3,34.0,29.87,SE,135,1.0,3.0,40,0.00,,,0.00,weatherlink.com 1.10,2013-03-28 10:54:00,
2013-03-28 06:09:00,58.9,34.0,29.87,SE,135,1.0,2.0,40,0.00,,,0.00,weatherlink.com 1.10,2013-03-28 11:09:00,
2013-03-28 06:24:00,59.5,35.0,29.87,SE,135,0.0,2.0,40,0.00,,,0.00,weatherlink.com 1.10,2013-03-28 11:24:00,
2013-03-28 06:39:00,59.4,35.0,29.88,SE,135,0.0,4.0,40,0.00,,,0.00,weatherlink.com 1.10,2013-03-28 11:39:00,
2013-03-28 06:54:00,60.1,36.0,29.88,SE,135,0.0,3.0,40,0.00,,,0.00,weatherlink.com 1.10,2013-03-28 11:54:00,
2013-03-28 07:09:00,59.2,35.0,29.88,SE,135,1.0,2.0,41,0.00,,,0.00,weatherlink.com 1.10,2013-03-28 12:09:00,
2013-03-28 07:24:00,59.8,35.0,29.88,SE,135,0.0,2.0,40,0.00,,,0.00,weatherlink.com 1.10,2013-03-28 12:24:00,
2013-03-28 07:39:00,58.7,35.0,29.89,SE,135,0.0,2.0,42,0.00,,,0.00,weatherlink.com 1.10,2013-03-28 12:39:00,
2013-03-28 08:09:00,58.7,36.0,29.89,SE,135,0.0,2.0,43,0.00,,,0.00,weatherlink.com 1.10,2013-03-28 13:09:00,
2013-03-28 08:24:00,58.1,36.0,29.89,SE,135,0.0,1.0,44,0.00,,,0.00,weatherlink.com 1.10,2013-03-28 13:24:00,
2013-03-28 08:39:00,58.7,36.0,29.90,SE,135,0.0,1.0,43,0.00,,,0.00,weatherlink.com 1.10,2013-03-28 13:39:00,
2013-03-28 08:54:00,59.1,36.0,29.90,SE,135,0.0,2.0,42,0.00,,,0.00,weatherlink.com 1.10,2013-03-28 13:54:00,
2013-03-28 09:25:00,61.4,37.0,29.91,SE,135,0.0,2.0,40,0.00,,,0.00,weatherlink.com 1.10,2013-03-28 14:25:00,
2013-03-28 09:40:00,62.9,37.0,29.91,SE,135,0.0,2.0,39,0.00,,,0.00,weatherlink.com 1.10,2013-03-28 14:40:00,
2013-03-28 09:55:00,65.6,38.0,29.91,SE,135,0.0,2.0,36,0.00,,,0.00,weatherlink.com 1.10,2013-03-28 14:55:00,
2013-03-28 10:10:00,68.6,37.0,29.91,SE,135,6.0,6.0,31,0.00,,,0.00,weatherlink.com 1.10,2013-03-28 15:10:00,
2013-03-28 10:25:00,70.3,36.0,29.92,SE,135,0.0,6.0,29,0.00,,,0.00,weatherlink.com 1.10,2013-03-28 15:25:00,
2013-03-28 10:40:00,70.9,37.0,29.92,SE,135,0.0,7.0,29,0.00,,,0.00,weatherlink.com 1.10,2013-03-28 15:40:00,
2013-03-28 11:10:00,72.8,34.0,29.91,West,275,4.0,9.0,24,0.00,,,0.00,weatherlink.com 1.10,2013-03-28 16:10:00,
2013-03-28 11:25:00,74.6,34.0,29.91,West,275,4.0,6.0,23,0.00,,,0.00,weatherlink.com 1.10,2013-03-28 16:25:00,
2013-03-28 11:40:00,75.8,33.0,29.91,West,275,1.0,6.0,21,0.00,,,0.00,weatherlink.com 1.10,2013-03-28 16:40:00,
2013-03-28 11:55:00,75.7,31.0,29.91,West,275,0.0,7.0,19,0.00,,,0.00,weatherlink.com 1.10,2013-03-28 16:55:00,
2013-03-28 12:10:00,77.5,29.0,29.91,West,275,1.0,6.0,17,0.00,,,0.00,weatherlink.com 1.10,2013-03-28 17:10:00,
2013-03-28 12:25:00,77.8,31.0,29.90,West,275,1.0,3.0,18,0.00,,,0.00,weatherlink.com 1.10,2013-03-28 17:25:00,
2013-03-28 12:40:00,79.4,31.0,29.90,West,275,2.0,4.0,17,0.00,,,0.00,weatherlink.com 1.10,2013-03-28 17:40:00,
2013-03-28 12:56:00,80.3,29.0,29.89,SSE,163,1.0,5.0,15,0.00,,,0.00,weatherlink.com 1.10,2013-03-28 17:56:00,
2013-03-28 13:11:00,78.8,27.0,29.89,SSE,163,2.0,5.0,15,0.00,,,0.00,weatherlink.com 1.10,2013-03-28 18:11:00,
2013-03-28 13:26:00,80.0,28.0,29.88,WSW,242,3.0,8.0,15,0.00,,,0.00,weatherlink.com 1.10,2013-03-28 18:26:00,
2013-03-28 13:41:00,80.1,28.0,29.88,WSW,247,1.0,10.0,15,0.00,,,0.00,weatherlink.com 1.10,2013-03-28 18:41:00,
2013-03-28 14:26:00,80.6,29.0,29.85,SW,227,6.0,8.0,15,0.00,,,0.00,weatherlink.com 1.10,2013-03-28 19:26:00,
2013-03-28 14:41:00,80.4,29.0,29.85,South,176,2.0,9.0,15,0.00,,,0.00,weatherlink.com 1.10,2013-03-28 19:41:00,
2013-03-28 14:56:00,80.2,27.0,29.84,South,176,3.0,6.0,14,0.00,,,0.00,weatherlink.com 1.10,2013-03-28 19:56:00,
2013-03-28 15:11:00,81.1,31.0,29.83,ESE,119,8.0,15.0,16,0.00,,,0.00,weatherlink.com 1.10,2013-03-28 20:11:00,
2013-03-28 15:26:00,79.7,33.0,29.82,ESE,112,9.0,12.0,18,0.00,,,0.00,weatherlink.com 1.10,2013-03-28 20:26:00,
2013-03-28 15:41:00,79.9,33.0,29.82,SE,126,10.0,16.0,18,0.00,,,0.00,weatherlink.com 1.10,2013-03-28 20:41:00,
2013-03-28 15:56:00,81.1,32.0,29.81,SE,128,7.0,13.0,17,0.00,,,0.00,weatherlink.com 1.10,2013-03-28 20:56:00,
2013-03-28 16:11:00,81.2,34.0,29.80,ESE,114,8.0,16.0,18,0.00,,,0.00,weatherlink.com 1.10,2013-03-28 21:11:00,
2013-03-28 16:26:00,78.2,34.0,29.80,ESE,117,5.0,15.0,20,0.00,,,0.00,weatherlink.com 1.10,2013-03-28 21:26:00,
2013-03-28 16:41:00,79.4,35.0,29.80,ESE,117,8.0,19.0,20,0.00,,,0.00,weatherlink.com 1.10,2013-03-28 21:41:00,
2013-03-28 16:56:00,79.5,35.0,29.80,ESE,120,4.0,14.0,20,0.00,,,0.00,weatherlink.com 1.10,2013-03-28 21:56:00,
2013-03-28 17:11:00,78.5,34.0,29.80,NNE,31,6.0,13.0,20,0.00,,,0.00,weatherlink.com 1.10,2013-03-28 22:11:00,
2013-03-28 17:26:00,76.0,33.0,29.80,East,88,1.0,11.0,21,0.00,,,0.00,weatherlink.com 1.10,2013-03-28 22:26:00,
2013-03-28 17:41:00,76.0,33.0,29.80,East,84,7.0,10.0,21,0.00,,,0.00,weatherlink.com 1.10,2013-03-28 22:41:00,
2013-03-28 17:56:00,76.3,34.0,29.80,ESE,115,8.0,11.0,21,0.00,,,0.00,weatherlink.com 1.10,2013-03-28 22:56:00,
2013-03-28 18:11:00,77.1,34.0,29.80,SE,127,0.0,16.0,21,0.00,,,0.00,weatherlink.com 1.10,2013-03-28 23:11:00,
2013-03-28 18:26:00,75.8,34.0,29.81,ESE,123,7.0,14.0,22,0.00,,,0.00,weatherlink.com 1.10,2013-03-28 23:26:00,
2013-03-28 18:41:00,75.5,35.0,29.80,ESE,119,10.0,19.0,23,0.00,,,0.00,weatherlink.com 1.10,2013-03-28 23:41:00,
2013-03-28 18:56:00,73.2,39.0,29.81,ESE,111,3.0,19.0,29,0.00,,,0.00,weatherlink.com 1.10,2013-03-28 23:56:00,
2013-03-28 19:11:00,72.4,41.0,29.81,ESE,115,9.0,18.0,32,0.00,,,0.00,weatherlink.com 1.10,2013-03-29 00:11:00,
2013-03-28 19:26:00,71.0,40.0,29.82,ESE,115,5.0,18.0,33,0.00,,,0.00,weatherlink.com 1.10,2013-03-29 00:26:00,
2013-03-28 19:41:00,70.0,41.0,29.82,ESE,115,15.0,21.0,35,0.00,,,0.00,weatherlink.com 1.10,2013-03-29 00:41:00,
2013-03-28 19:56:00,69.4,42.0,29.83,ESE,121,8.0,14.0,37,0.00,,,0.00,weatherlink.com 1.10,2013-03-29 00:56:00,
2013-03-28 20:11:00,68.6,43.0,29.82,ESE,114,4.0,21.0,40,0.00,,,0.00,weatherlink.com 1.10,2013-03-29 01:11:00,
2013-03-28 20:26:00,67.9,43.0,29.82,SE,124,4.0,15.0,41,0.00,,,0.00,weatherlink.com 1.10,2013-03-29 01:26:00,
2013-03-28 20:41:00,66.9,43.0,29.83,SE,132,2.0,10.0,42,0.00,,,0.00,weatherlink.com 1.10,2013-03-29 01:41:00,
2013-03-28 20:56:00,66.1,43.0,29.84,SE,132,3.0,5.0,43,0.00,,,0.00,weatherlink.com 1.10,2013-03-29 01:56:00,
2013-03-28 21:11:00,65.8,43.0,29.85,SE,129,5.0,9.0,43,0.00,,,0.00,weatherlink.com 1.10,2013-03-29 02:11:00,
2013-03-28 21:26:00,65.2,42.0,29.85,SE,126,4.0,10.0,43,0.00,,,0.00,weatherlink.com 1.10,2013-03-29 02:26:00,
2013-03-28 21:41:00,64.4,42.0,29.85,SE,126,3.0,9.0,44,0.00,,,0.00,weatherlink.com 1.10,2013-03-29 02:41:00,
2013-03-28 21:56:00,63.4,42.0,29.86,SE,126,3.0,4.0,46,0.00,,,0.00,weatherlink.com 1.10,2013-03-29 02:56:00,
2013-03-28 22:11:00,62.8,43.0,29.86,SE,126,1.0,4.0,49,0.00,,,0.00,weatherlink.com 1.10,2013-03-29 03:11:00,
2013-03-28 22:26:00,62.6,44.0,29.86,SE,126,3.0,5.0,50,0.00,,,0.00,weatherlink.com 1.10,2013-03-29 03:26:00,
2013-03-28 22:41:00,62.0,44.0,29.87,SE,126,2.0,8.0,53,0.00,,,0.00,weatherlink.com 1.10,2013-03-29 03:41:00,
2013-03-28 22:56:00,61.6,44.0,29.87,SE,126,0.0,1.0,53,0.00,,,0.00,weatherlink.com 1.10,2013-03-29 03:56:00,
2013-03-28 23:11:00,61.0,44.0,29.87,SE,126,0.0,2.0,54,0.00,,,0.00,weatherlink.com 1.10,2013-03-29 04:11:00,
2013-03-28 23:26:00,61.5,43.0,29.87,SE,126,1.0,2.0,50,0.00,,,0.00,weatherlink.com 1.10,2013-03-29 04:26:00,
2013-03-28 23:41:00,61.3,42.0,29.88,SE,126,0.0,3.0,49,0.00,,,0.00,weatherlink.com 1.10,2013-03-29 04:41:00,
2013-03-28 23:56:00,61.1,42.0,29.87,SE,126,4.0,7.0,50,0.00,,,0.00,weatherlink.com 1.10,2013-03-29 04:56:00,